Flag Weather past 2 weeks in Fort Smith, Northwest Territories, Canada

Now
-8 °F

Light snow. Overcast.


Feels Like: -8 °F
Forecast: -6 / 3 °F
Wind: No wind

Location: Fort Smith

Current Time: Nov 23, 2014 at 12:40:48 AM

Latest Report: Nov 23, 2014 at 12:00 AM


Visibility: 10 mi

Pressure: 29.96 "Hg

Humidity: 77%

Dew point: -13 °F

Location of Fort SmithLocation

Historic Weather in Fort Smith — Graph

°F

Fort Smith temperature yesterday

Maximum temperature yesterday: -6 °F (at 1:00 PM)
Minimum temperature yesterday: -13 °F (at 5:00 AM)
Average temperature yesterday: -9 °F

Past Weeks' High & Low Weather Summary

 TemperatureHumidityPressure
High21 °F (Nov 15, 6:00 PM)100% (Nov 16, 9:00 PM)31.00 "Hg (Nov 16, 9:00 PM)
Low-13 °F (Nov 11, 6:00 AM)66% (Nov 8, 3:00 PM)28.05 "Hg (Nov 11, 9:00 AM)
Average7 °F85%30.27 "Hg
* Reported Nov 7 11:00 PM — Nov 22 11:00 PM, Fort Smith, Weather by CustomWeather, © 2014

Note: Actual official high and low records may vary slightly from our data, if they occured in-between our weather recording intervals... More about our weather records

Advertising

Fort Smith weather history for previous 24 hours

 ConditionsComfort  
Time TempWeatherWind HumidityBarometerVisibility
11:00 PM
Nov 22
-8 °FLight snow. Passing clouds.2 mph77%29.96 "Hg12 mi
10:51 PM-8 °FLight snow. Passing clouds.2 mph77%29.96 "Hg12 mi
10:00 PM-8 °FMostly cloudy.3 mph77%29.95 "Hg15 mi
9:00 PM-8 °FPassing clouds.2 mph77%29.95 "Hg15 mi
8:00 PM-9 °FPassing clouds.3 mph77%29.93 "Hg15 mi
7:00 PM-9 °FPassing clouds.5 mph77%29.93 "Hg15 mi
6:00 PM-8 °FPartly cloudy.3 mph77%29.93 "Hg15 mi
5:00 PM-8 °FPassing clouds.8 mph77%29.92 "Hg15 mi
4:00 PM-6 °FPassing clouds.6 mph77%29.90 "Hg15 mi
3:00 PM-6 °FPartly sunny.7 mph84%29.88 "Hg15 mi
2:00 PM-6 °FPartly sunny.6 mph84%29.86 "Hg15 mi
1:00 PM-6 °FPartly sunny.3 mph77%29.86 "Hg15 mi
12:00 PM-8 °FPartly sunny.6 mph77%29.86 "Hg15 mi
11:00 AM-9 °FPartly sunny.5 mph77%29.85 "Hg15 mi
10:00 AM-11 °FPartly sunny.5 mph76%29.84 "Hg15 mi
9:00 AM-13 °FPartly sunny.3 mph76%29.83 "Hg15 mi
8:00 AM-13 °FPassing clouds.5 mph83%29.82 "Hg15 mi
7:00 AM-13 °FPassing clouds.5 mph76%29.82 "Hg15 mi
6:00 AM-11 °FPassing clouds.7 mph76%29.81 "Hg15 mi
5:00 AM-13 °FPassing clouds.5 mph83%29.82 "Hg15 mi
4:00 AM-11 °FPassing clouds.2 mph76%29.83 "Hg15 mi
3:00 AM-11 °FPassing clouds.6 mph76%29.82 "Hg15 mi
2:00 AM-11 °FLight snow. Passing clouds.5 mph84%29.83 "Hg15 mi
1:00 AM-11 °FPassing clouds.6 mph84%29.83 "Hg15 mi
12:00 AM-9 °FPassing clouds.7 mph77%29.84 "Hg15 mi
Weather by CustomWeather, © 2014

See weather overviewHow to use our weather pages